User: anonymous   Login
Location: Theydon Bois
(51.6750°N, 0.1050°E)
Time: 06:22:17
(UTC+01:00)
Language:

Cosmos 2058 - Orbit

View from above orbital plane
View from above orbital plane
View from above satellite
View from above satellite

Ground track
Ground track

The orbit data is extracted from the following two-line orbital elements,

1 20465U 90010A   17292.49923959 +.00000396 +00000-0 +31589-4 0  9996
2 20465 082.4870 128.3411 0014316 233.0164 126.9749 14.97596184482839
Epoch (UTC): 19 October 2017 11:58:54
Eccentricity: 0.0014316
inclination: 82.4870°
perigee height: 564 km
apogee height: 584 km
right ascension of ascending node: 128.3411°
argument of perigee: 233.0164°
revolutions per day: 14.97596184
mean anomaly at epoch: 126.9749°
orbit number at epoch: 48283

The dashed part of the orbit path shows where the satellite is in the earth's shadow,  

DLR